TGL93W LFKJ-ESSA

Flight info

Callsign TGL93W
Flight time 2h 56m
Altitude 30000
Route TORTU DCT OLETI DCT LUKIM DCT GOLAS DCT APRIV DCT GIBLO DCT OSKOR DCT NESTI DCT TAGIP DCT DIBAX DCT EKPIS DCT BRENO M726 EMBOX/N0452F360 M726 SALLO M736 SIMEG/N0452F370 DCT TIDVU P605 EKRAL DCT ETPIG DCT BEDOS N851 PELUP Z226 NILUG
Aircraft A320/M-SDE3FGHIRWY/LB1

Departure

Time 2026-04-21 18:25
Airport Ajaccio Napoléon Bonaparte airport (LFKJ)

Arrival

Time 2026-04-21 21:21
Airport Stockholm-Arlanda Airport (ESSA)
Time Latitude Longitude Altitude Speed Heading
2026-04-21 17:29 41.92067 8.79646 26 ft 0 kts 345°
2026-04-21 18:19 41.92070 8.79645 -1 ft 2 kts 345°
2026-04-21 18:20 41.92081 8.79647 30 ft 1 kts 36°
2026-04-21 18:20 41.92081 8.79650 30 ft 0 kts 61°
2026-04-21 18:20 41.92081 8.79659 30 ft 2 kts 89°
2026-04-21 18:20 41.92076 8.79683 26 ft 2 kts 108°
2026-04-21 18:21 41.92084 8.79722 30 ft 5 kts 42°
2026-04-21 18:21 41.92133 8.79751 28 ft 11 kts 26°
2026-04-21 18:21 41.92217 8.79806 29 ft 16 kts 26°
2026-04-21 18:21 41.92325 8.79876 28 ft 18 kts 25°
2026-04-21 18:22 41.92434 8.79944 28 ft 16 kts 24°
2026-04-21 18:22 41.92531 8.80003 29 ft 14 kts 24°
2026-04-21 18:22 41.92617 8.80055 27 ft 14 kts 24°
2026-04-21 18:22 41.92720 8.80120 26 ft 18 kts 27°
2026-04-21 18:23 41.92814 8.80209 27 ft 15 kts 41°
2026-04-21 18:23 41.92883 8.80304 28 ft 13 kts 46°
2026-04-21 18:23 41.92939 8.80379 30 ft 11 kts 46°
2026-04-21 18:23 41.92964 8.80464 31 ft 9 kts 92°
2026-04-21 18:24 41.92943 8.80541 32 ft 8 kts 113°
2026-04-21 18:24 41.92904 8.80564 31 ft 6 kts 200°
2026-04-21 18:24 41.92869 8.80545 31 ft 7 kts 202°
2026-04-21 18:24 41.92659 8.80412 28 ft 74 kts 205°
2026-04-21 18:25 41.91948 8.79967 19 ft 147 kts 205°
2026-04-21 18:25 41.90922 8.79308 484 ft 169 kts 206°
2026-04-21 18:25 41.89842 8.78605 1307 ft 175 kts 206°
2026-04-21 18:25 41.88814 8.77734 2098 ft 179 kts 215°
2026-04-21 18:26 41.87749 8.76730 2432 ft 198 kts 215°
2026-04-21 18:26 41.86557 8.75605 2657 ft 222 kts 215°
2026-04-21 18:26 41.85219 8.74349 2945 ft 249 kts 216°
2026-04-21 18:26 41.83744 8.72967 3004 ft 263 kts 216°
2026-04-21 18:27 41.82233 8.71559 3007 ft 265 kts 216°
2026-04-21 18:27 41.80725 8.70159 3007 ft 263 kts 216°
2026-04-21 18:27 41.79212 8.68766 3192 ft 268 kts 215°
2026-04-21 18:27 41.77675 8.67377 4150 ft 266 kts 216°
2026-04-21 18:28 41.76127 8.65990 5081 ft 267 kts 216°
2026-04-21 18:28 41.74594 8.64620 5944 ft 269 kts 216°
2026-04-21 18:28 41.73032 8.63224 6770 ft 272 kts 217°
2026-04-21 18:28 41.71451 8.61810 7559 ft 275 kts 217°
2026-04-21 18:29 41.69825 8.60440 8324 ft 282 kts 209°
2026-04-21 18:29 41.67868 8.59881 9064 ft 297 kts 181°
2026-04-21 18:29 41.65845 8.60595 9785 ft 310 kts 153°
2026-04-21 18:29 41.64225 8.62525 10430 ft 319 kts 123°
2026-04-21 18:30 41.63438 8.65284 11095 ft 321 kts 93°
2026-04-21 18:30 41.63690 8.68169 11765 ft 317 kts 64°
2026-04-21 18:30 41.64885 8.70565 12401 ft 312 kts 38°
2026-04-21 18:30 41.66767 8.72065 12593 ft 323 kts 17°
2026-04-21 18:31 41.68933 8.73200 12724 ft 345 kts 16°
2026-04-21 18:31 41.71230 8.74384 13007 ft 360 kts 17°
2026-04-21 18:31 41.73580 8.75604 13597 ft 365 kts 17°
2026-04-21 18:31 41.75967 8.76812 14164 ft 368 kts 13°
2026-04-21 18:32 41.78422 8.77574 14731 ft 367 kts
2026-04-21 18:32 41.80960 8.77897 15330 ft 368 kts
2026-04-21 18:32 41.83520 8.78182 15906 ft 371 kts
2026-04-21 18:32 41.86106 8.78469 16464 ft 374 kts
2026-04-21 18:33 41.88711 8.78756 17061 ft 377 kts
2026-04-21 18:33 41.91333 8.79046 17611 ft 380 kts
2026-04-21 18:33 41.93975 8.79340 18152 ft 383 kts
2026-04-21 18:33 41.96638 8.79639 18618 ft 386 kts
2026-04-21 18:34 41.99324 8.79941 19082 ft 389 kts
2026-04-21 18:34 42.02027 8.80248 19588 ft 391 kts
2026-04-21 18:34 42.04710 8.80552 20055 ft 393 kts
2026-04-21 18:34 42.07412 8.80854 20520 ft 396 kts
2026-04-21 18:35 42.09295 8.81062 20860 ft 397 kts
2026-04-21 18:35 42.12971 8.81466 21463 ft 400 kts 360°
2026-04-21 18:35 42.15758 8.81778 21879 ft 403 kts
2026-04-21 18:35 42.18560 8.82095 22311 ft 405 kts
2026-04-21 18:36 42.21376 8.82413 22719 ft 407 kts 360°
2026-04-21 18:36 42.24205 8.82731 23141 ft 410 kts 360°
2026-04-21 18:36 42.27020 8.83045 23558 ft 412 kts 360°
2026-04-21 18:36 42.29880 8.83364 23940 ft 414 kts 360°
2026-04-21 18:37 42.32753 8.83686 24331 ft 415 kts 360°
2026-04-21 18:37 42.35634 8.84009 24720 ft 416 kts 359°
2026-04-21 18:37 42.38525 8.84335 25078 ft 418 kts 359°
2026-04-21 18:37 42.41426 8.84663 25450 ft 420 kts 359°
2026-04-21 18:38 42.44341 8.84995 25852 ft 421 kts 359°
2026-04-21 18:38 42.47263 8.85325 26201 ft 423 kts 359°
2026-04-21 18:38 42.50201 8.85658 26576 ft 424 kts 359°
2026-04-21 18:38 42.53104 8.85989 26917 ft 425 kts 359°
2026-04-21 18:39 42.56095 8.86330 27251 ft 426 kts 359°
2026-04-21 18:39 42.59009 8.86660 27568 ft 427 kts 359°
2026-04-21 18:39 42.61986 8.86995 27862 ft 429 kts 359°
2026-04-21 18:39 42.64959 8.87333 28157 ft 430 kts 359°
2026-04-21 18:40 42.67945 8.87674 28461 ft 431 kts 359°
2026-04-21 18:40 42.70942 8.88013 28747 ft 433 kts 359°
2026-04-21 18:40 42.72932 8.88240 28930 ft 433 kts 359°
2026-04-21 18:40 42.76956 8.88694 29329 ft 434 kts 359°
2026-04-21 18:41 42.79964 8.89037 29735 ft 432 kts 359°
2026-04-21 18:41 42.82956 8.89382 30124 ft 431 kts 359°
2026-04-21 18:41 42.85938 8.89727 30450 ft 430 kts 359°
2026-04-21 18:41 42.88872 8.90066 30781 ft 429 kts 359°
2026-04-21 18:42 42.91842 8.90407 31093 ft 428 kts 358°
2026-04-21 18:42 42.94808 8.90749 31408 ft 427 kts 358°
2026-04-21 18:42 42.97766 8.91090 31709 ft 427 kts 358°
2026-04-21 18:42 43.00724 8.91430 32014 ft 426 kts 358°
2026-04-21 18:43 43.03673 8.91768 32312 ft 425 kts 358°
2026-04-21 18:43 43.06623 8.92105 32607 ft 425 kts 358°
2026-04-21 18:43 43.09567 8.92444 32936 ft 424 kts 357°
2026-04-21 18:43 43.12499 8.92926 33253 ft 430 kts
2026-04-21 18:44 43.15371 8.94241 33550 ft 438 kts 13°
2026-04-21 18:44 43.18216 8.95738 33827 ft 438 kts 13°
2026-04-21 18:44 43.21065 8.97263 33933 ft 439 kts 13°
2026-04-21 18:45 43.26718 9.00314 33948 ft 439 kts 13°
2026-04-21 18:45 43.32396 9.03376 33942 ft 437 kts 13°
2026-04-21 18:46 43.38053 9.06424 33943 ft 437 kts 13°
2026-04-21 18:46 43.43714 9.09471 33960 ft 437 kts 13°
2026-04-21 18:47 43.49373 9.12517 33986 ft 436 kts 13°
2026-04-21 18:47 43.54988 9.15545 33977 ft 436 kts 13°
2026-04-21 18:48 43.60626 9.18602 33971 ft 435 kts 13°
2026-04-21 18:48 43.66261 9.21666 33980 ft 435 kts 13°
2026-04-21 18:49 43.71884 9.24724 33972 ft 434 kts 13°
2026-04-21 18:49 43.76564 9.27269 33968 ft 434 kts 13°
2026-04-21 18:50 43.83128 9.30841 33966 ft 434 kts 13°
2026-04-21 18:50 43.88702 9.33895 33984 ft 434 kts 13°
2026-04-21 18:51 43.94313 9.36981 33975 ft 434 kts 13°
2026-04-21 18:51 43.99926 9.40065 33967 ft 433 kts 13°
2026-04-21 18:52 44.05527 9.43148 33985 ft 433 kts 13°
2026-04-21 18:52 44.11098 9.46218 33971 ft 433 kts 13°
2026-04-21 18:53 44.16710 9.49307 33959 ft 434 kts 13°
2026-04-21 18:53 44.22325 9.52413 33976 ft 435 kts 13°
2026-04-21 18:54 44.27942 9.55527 33962 ft 435 kts 13°
2026-04-21 18:54 44.33575 9.58667 33954 ft 436 kts 13°
2026-04-21 18:55 44.38250 9.61279 33957 ft 436 kts 13°
2026-04-21 18:55 44.44790 9.64928 33947 ft 436 kts 13°
2026-04-21 18:56 44.50422 9.68076 33943 ft 436 kts 13°
2026-04-21 18:56 44.56056 9.71239 33957 ft 436 kts 13°
2026-04-21 18:56 44.58882 9.72826 34226 ft 437 kts 13°
2026-04-21 18:57 44.61713 9.74415 34440 ft 439 kts 13°
2026-04-21 18:57 44.64547 9.76010 34679 ft 440 kts 14°
2026-04-21 18:57 44.67347 9.77589 34912 ft 440 kts 14°
2026-04-21 18:57 44.70192 9.79194 35156 ft 441 kts 14°
2026-04-21 18:58 44.73031 9.80799 35388 ft 440 kts 14°
2026-04-21 18:58 44.75883 9.82410 35634 ft 441 kts 14°
2026-04-21 18:58 44.78725 9.84015 35896 ft 442 kts 14°
2026-04-21 18:59 44.84431 9.87246 35946 ft 442 kts 14°
2026-04-21 18:59 44.90133 9.90484 35949 ft 441 kts 14°
2026-04-21 19:00 44.95786 9.93714 35978 ft 441 kts 14°
2026-04-21 19:00 45.01478 9.96957 35967 ft 441 kts 14°
2026-04-21 19:01 45.07178 10.00211 35968 ft 442 kts 14°
2026-04-21 19:01 45.12878 10.03469 35995 ft 442 kts 14°
2026-04-21 19:02 45.18575 10.06743 36003 ft 441 kts 14°
2026-04-21 19:02 45.24259 10.10016 35986 ft 441 kts 14°
2026-04-21 19:03 45.29908 10.13269 35971 ft 441 kts 14°
2026-04-21 19:03 45.35600 10.16557 35994 ft 441 kts 14°
2026-04-21 19:04 45.41275 10.19852 35986 ft 441 kts 14°
2026-04-21 19:04 45.46957 10.23156 35979 ft 441 kts 14°
2026-04-21 19:05 45.52632 10.26450 35990 ft 440 kts 14°
2026-04-21 19:05 45.58267 10.29723 35978 ft 441 kts 14°
2026-04-21 19:06 45.63937 10.33038 36029 ft 440 kts 14°
2026-04-21 19:06 45.69573 10.36523 36017 ft 449 kts 23°
2026-04-21 19:06 45.72076 10.39300 36046 ft 463 kts 36°
2026-04-21 19:07 45.74405 10.42488 36034 ft 464 kts 36°
2026-04-21 19:07 45.79035 10.48943 36026 ft 464 kts 37°
2026-04-21 19:08 45.83617 10.55373 36019 ft 465 kts 36°
2026-04-21 19:08 45.88248 10.61846 36057 ft 465 kts 36°
2026-04-21 19:09 45.92861 10.68367 36046 ft 469 kts 40°
2026-04-21 19:09 45.96805 10.75968 36054 ft 476 kts 47°
2026-04-21 19:10 46.00618 10.83766 36051 ft 477 kts 47°
2026-04-21 19:10 46.04454 10.91455 36045 ft 471 kts 40°
2026-04-21 19:10 46.06814 10.94593 36061 ft 455 kts 27°
2026-04-21 19:11 46.09531 10.96733 36052 ft 439 kts 13°
2026-04-21 19:11 46.15298 10.99406 36035 ft 435 kts 10°
2026-04-21 19:12 46.20096 11.01587 36046 ft 435 kts 10°
2026-04-21 19:12 46.26844 11.04667 36047 ft 436 kts 10°
2026-04-21 19:13 46.32635 11.07316 36051 ft 437 kts 10°
2026-04-21 19:13 46.38385 11.09958 36052 ft 437 kts 10°
2026-04-21 19:14 46.44173 11.12625 36045 ft 437 kts 11°
2026-04-21 19:14 46.49973 11.15298 36034 ft 437 kts 11°
2026-04-21 19:15 46.55769 11.17972 36026 ft 437 kts 11°
2026-04-21 19:15 46.61568 11.20659 36039 ft 438 kts 11°
2026-04-21 19:16 46.67338 11.23328 36057 ft 439 kts 11°
2026-04-21 19:16 46.73155 11.26034 36031 ft 439 kts 11°
2026-04-21 19:17 46.81893 11.30116 36056 ft 440 kts 11°
2026-04-21 19:17 46.87736 11.32850 36079 ft 441 kts 12°
2026-04-21 19:18 46.93576 11.35596 36087 ft 441 kts 12°
2026-04-21 19:18 46.99472 11.37790 36095 ft 432 kts
2026-04-21 19:19 47.05414 11.38384 36111 ft 431 kts 359°
2026-04-21 19:19 47.11399 11.38993 36124 ft 432 kts 359°
2026-04-21 19:20 47.17398 11.39620 36132 ft 433 kts 359°
2026-04-21 19:20 47.23403 11.40212 36159 ft 432 kts 358°
2026-04-21 19:21 47.29402 11.40401 36149 ft 431 kts 355°
2026-04-21 19:21 47.35360 11.40293 36132 ft 431 kts 355°
2026-04-21 19:22 47.41372 11.40206 36144 ft 432 kts 355°
2026-04-21 19:22 47.47389 11.40138 36153 ft 433 kts 356°
2026-04-21 19:23 47.53415 11.40067 36147 ft 433 kts 355°
2026-04-21 19:23 47.59451 11.39999 36157 ft 434 kts 356°
2026-04-21 19:24 47.65436 11.39760 36162 ft 433 kts 352°
2026-04-21 19:24 47.71435 11.38923 36165 ft 432 kts 351°
2026-04-21 19:25 47.77413 11.37939 36170 ft 433 kts 351°
2026-04-21 19:25 47.83416 11.37058 36172 ft 433 kts 352°
2026-04-21 19:26 47.89431 11.36335 36190 ft 435 kts 354°
2026-04-21 19:26 47.95479 11.35871 36182 ft 435 kts 354°
2026-04-21 19:27 48.01538 11.35448 36177 ft 436 kts 354°
2026-04-21 19:27 48.07548 11.34940 36176 ft 436 kts 353°
2026-04-21 19:28 48.13565 11.33926 36187 ft 435 kts 349°
2026-04-21 19:28 48.19548 11.32600 36182 ft 435 kts 349°
2026-04-21 19:29 48.25534 11.31328 36186 ft 435 kts 350°
2026-04-21 19:29 48.31553 11.30251 36187 ft 436 kts 352°
2026-04-21 19:30 48.37589 11.29370 36195 ft 436 kts 352°
2026-04-21 19:30 48.43586 11.28482 36204 ft 436 kts 352°
2026-04-21 19:31 48.49611 11.27534 36196 ft 435 kts 352°
2026-04-21 19:31 48.55632 11.26571 36219 ft 435 kts 352°
2026-04-21 19:32 48.61653 11.25604 36219 ft 435 kts 352°
2026-04-21 19:32 48.67677 11.24633 36231 ft 435 kts 352°
2026-04-21 19:33 48.73700 11.23671 36229 ft 435 kts 352°
2026-04-21 19:33 48.79724 11.22704 36240 ft 435 kts 352°
2026-04-21 19:34 48.85721 11.21940 36224 ft 437 kts 358°
2026-04-21 19:34 48.91797 11.21979 36219 ft 437 kts 358°
2026-04-21 19:35 49.00911 11.22016 36224 ft 437 kts 358°
2026-04-21 19:36 49.06988 11.22054 36215 ft 437 kts 359°
2026-04-21 19:36 49.13067 11.22094 36211 ft 437 kts 359°
2026-04-21 19:37 49.19100 11.22128 36211 ft 436 kts 359°
2026-04-21 19:37 49.25180 11.22164 36229 ft 437 kts 359°
2026-04-21 19:38 49.31252 11.22214 36227 ft 437 kts 359°
2026-04-21 19:38 49.36309 11.22260 36231 ft 437 kts 359°
2026-04-21 19:39 49.43384 11.22320 36226 ft 437 kts 359°
2026-04-21 19:39 49.49469 11.22383 36235 ft 437 kts 359°
2026-04-21 19:40 49.55553 11.22433 36239 ft 437 kts 359°
2026-04-21 19:40 49.61639 11.22451 36240 ft 437 kts 359°
2026-04-21 19:41 49.67730 11.22465 36245 ft 438 kts
2026-04-21 19:41 49.70740 11.23118 36243 ft 439 kts 16°
2026-04-21 19:41 49.73588 11.24652 36241 ft 439 kts 19°
2026-04-21 19:42 49.79320 11.27946 36239 ft 440 kts 19°
2026-04-21 19:42 49.85061 11.31294 36243 ft 441 kts 19°
2026-04-21 19:43 49.90798 11.34647 36261 ft 440 kts 20°
2026-04-21 19:43 49.96530 11.37995 36270 ft 440 kts 20°
2026-04-21 19:44 50.02262 11.41347 36270 ft 440 kts 20°
2026-04-21 19:44 50.08001 11.44381 36277 ft 439 kts 17°
2026-04-21 19:45 50.13750 11.47597 36276 ft 439 kts 21°
2026-04-21 19:45 50.19411 11.51141 36271 ft 439 kts 22°
2026-04-21 19:46 50.25090 11.54624 36268 ft 439 kts 21°
2026-04-21 19:46 50.30794 11.58002 36264 ft 438 kts 21°
2026-04-21 19:47 50.36471 11.61346 36282 ft 438 kts 21°
2026-04-21 19:47 50.42175 11.64716 36279 ft 438 kts 21°
2026-04-21 19:48 50.47873 11.68100 36281 ft 438 kts 21°
2026-04-21 19:48 50.53564 11.71508 36285 ft 438 kts 21°
2026-04-21 19:49 50.59258 11.74925 36292 ft 438 kts 21°
2026-04-21 19:49 50.64948 11.78345 36299 ft 438 kts 21°
2026-04-21 19:50 50.69676 11.81196 36297 ft 438 kts 21°
2026-04-21 19:50 50.76287 11.85191 36296 ft 437 kts 21°
2026-04-21 19:51 50.81965 11.88627 36302 ft 437 kts 21°
2026-04-21 19:51 50.87638 11.92055 36304 ft 436 kts 21°
2026-04-21 19:52 50.93259 11.95476 36299 ft 436 kts 22°
2026-04-21 19:52 50.98912 11.98929 36297 ft 435 kts 22°
2026-04-21 19:53 51.04555 12.02379 36303 ft 434 kts 22°
2026-04-21 19:53 51.10190 12.05838 36302 ft 434 kts 22°
2026-04-21 19:54 51.15822 12.09305 36299 ft 433 kts 22°
2026-04-21 19:54 51.20491 12.12190 36295 ft 433 kts 22°
2026-04-21 19:55 51.27025 12.16226 36301 ft 433 kts 22°
2026-04-21 19:55 51.32646 12.19705 36304 ft 433 kts 22°
2026-04-21 19:56 51.38266 12.23192 36315 ft 433 kts 22°
2026-04-21 19:56 51.42931 12.26097 36311 ft 433 kts 22°
2026-04-21 19:57 51.48539 12.29596 36319 ft 432 kts 22°
2026-04-21 19:57 51.54137 12.33114 36319 ft 432 kts 22°
2026-04-21 19:58 51.59729 12.36622 36311 ft 431 kts 22°
2026-04-21 19:58 51.65319 12.40150 36314 ft 431 kts 23°
2026-04-21 19:59 51.70851 12.43655 36310 ft 430 kts 22°
2026-04-21 19:59 51.76425 12.47175 36311 ft 430 kts 22°
2026-04-21 20:00 51.81999 12.50698 36314 ft 430 kts 22°
2026-04-21 20:00 51.87568 12.54243 36311 ft 430 kts 23°
2026-04-21 20:01 51.93139 12.57801 36318 ft 430 kts 23°
2026-04-21 20:01 51.98671 12.61331 36315 ft 430 kts 23°
2026-04-21 20:02 52.04236 12.64902 36315 ft 430 kts 23°
2026-04-21 20:02 52.09804 12.68485 36314 ft 430 kts 23°
2026-04-21 20:03 52.15361 12.72071 36317 ft 430 kts 23°
2026-04-21 20:03 52.20917 12.75665 36322 ft 430 kts 23°
2026-04-21 20:04 52.26433 12.79232 36324 ft 429 kts 23°
2026-04-21 20:04 52.31984 12.82839 36322 ft 429 kts 23°
2026-04-21 20:05 52.37530 12.86447 36328 ft 429 kts 23°
2026-04-21 20:05 52.43068 12.90070 36329 ft 428 kts 23°
2026-04-21 20:06 52.48560 12.93677 36332 ft 428 kts 23°
2026-04-21 20:06 52.54089 12.97306 36320 ft 428 kts 23°
2026-04-21 20:07 52.59607 13.00941 36323 ft 427 kts 24°
2026-04-21 20:07 52.65120 13.04582 36330 ft 427 kts 24°
2026-04-21 20:08 52.70586 13.08203 36329 ft 426 kts 24°
2026-04-21 20:08 52.76090 13.11853 36331 ft 426 kts 24°
2026-04-21 20:09 52.81582 13.15516 36330 ft 426 kts 24°
2026-04-21 20:09 52.87074 13.19189 36332 ft 426 kts 24°
2026-04-21 20:10 52.92530 13.22841 36329 ft 426 kts 24°
2026-04-21 20:10 52.98019 13.26524 36328 ft 426 kts 24°
2026-04-21 20:11 53.03507 13.30212 36330 ft 425 kts 24°
2026-04-21 20:11 53.08986 13.33913 36333 ft 425 kts 24°
2026-04-21 20:12 53.14454 13.37620 36354 ft 425 kts 24°
2026-04-21 20:12 53.19895 13.41317 36352 ft 425 kts 24°
2026-04-21 20:13 53.25361 13.45033 36338 ft 424 kts 24°
2026-04-21 20:13 53.30821 13.48766 36345 ft 424 kts 24°
2026-04-21 20:14 53.36279 13.52499 36344 ft 423 kts 24°
2026-04-21 20:14 53.41696 13.56214 36350 ft 423 kts 24°
2026-04-21 20:15 53.47140 13.59964 36344 ft 423 kts 24°
2026-04-21 20:15 53.52587 13.63718 36349 ft 423 kts 24°
2026-04-21 20:16 53.58020 13.67477 36355 ft 422 kts 24°
2026-04-21 20:16 53.63417 13.71221 36353 ft 422 kts 24°
2026-04-21 20:17 53.68840 13.74996 36355 ft 422 kts 24°
2026-04-21 20:17 53.74259 13.78787 36349 ft 421 kts 24°
2026-04-21 20:18 53.79664 13.82567 36355 ft 420 kts 24°
2026-04-21 20:18 53.85069 13.86353 36363 ft 420 kts 24°
2026-04-21 20:19 53.90464 13.90143 36359 ft 419 kts 25°
2026-04-21 20:19 53.95813 13.93918 36352 ft 419 kts 25°
2026-04-21 20:20 54.01192 13.97728 36359 ft 418 kts 25°
2026-04-21 20:20 54.06562 14.01552 36362 ft 418 kts 25°
2026-04-21 20:21 54.11930 14.05375 36362 ft 418 kts 25°
2026-04-21 20:21 54.17260 14.09171 36362 ft 418 kts 25°
2026-04-21 20:22 54.22627 14.13001 36361 ft 418 kts 25°
2026-04-21 20:22 54.30661 14.18780 36363 ft 417 kts 25°
2026-04-21 20:23 54.35997 14.22635 36367 ft 417 kts 25°
2026-04-21 20:23 54.41310 14.26472 36356 ft 417 kts 25°
2026-04-21 20:24 54.46651 14.30335 36352 ft 416 kts 25°
2026-04-21 20:24 54.51984 14.34217 36351 ft 416 kts 25°
2026-04-21 20:25 54.57312 14.38102 36362 ft 416 kts 25°
2026-04-21 20:25 54.62604 14.41968 36362 ft 416 kts 25°
2026-04-21 20:26 54.67931 14.45876 36343 ft 416 kts 25°
2026-04-21 20:26 54.73252 14.49796 36350 ft 415 kts 25°
2026-04-21 20:27 54.78563 14.53718 36351 ft 415 kts 25°
2026-04-21 20:27 54.83869 14.57637 36350 ft 415 kts 25°
2026-04-21 20:28 54.89144 14.61534 36341 ft 415 kts 25°
2026-04-21 20:28 54.94446 14.65483 36337 ft 414 kts 25°
2026-04-21 20:29 54.99740 14.69443 36338 ft 414 kts 25°
2026-04-21 20:29 55.05030 14.73395 36339 ft 414 kts 25°
2026-04-21 20:30 55.10281 14.77323 36336 ft 413 kts 25°
2026-04-21 20:30 55.15566 14.81308 36336 ft 413 kts 25°
2026-04-21 20:31 55.20843 14.85283 36337 ft 413 kts 25°
2026-04-21 20:31 55.26119 14.89276 36332 ft 413 kts 25°
2026-04-21 20:32 55.31388 14.93290 36329 ft 412 kts 25°
2026-04-21 20:32 55.36618 14.97280 36330 ft 413 kts 25°
2026-04-21 20:33 55.41890 15.01292 36306 ft 413 kts 25°
2026-04-21 20:33 55.47151 15.05315 36312 ft 412 kts 25°
2026-04-21 20:34 55.52413 15.09359 36318 ft 412 kts 25°
2026-04-21 20:34 55.57663 15.13402 36317 ft 412 kts 25°
2026-04-21 20:35 55.62881 15.17436 36313 ft 412 kts 25°
2026-04-21 20:35 55.68134 15.21511 36307 ft 412 kts 25°
2026-04-21 20:36 55.73380 15.25587 36311 ft 412 kts 25°
2026-04-21 20:36 55.78593 15.29645 36309 ft 412 kts 25°
2026-04-21 20:37 55.83838 15.33734 36313 ft 412 kts 25°
2026-04-21 20:37 55.89075 15.37830 36308 ft 411 kts 25°
2026-04-21 20:38 55.94313 15.41952 36312 ft 411 kts 25°
2026-04-21 20:38 55.99507 15.46058 36310 ft 411 kts 25°
2026-04-21 20:39 56.04733 15.50187 36308 ft 411 kts 25°
2026-04-21 20:39 56.09968 15.54335 36322 ft 411 kts 25°
2026-04-21 20:40 56.15197 15.58497 36315 ft 411 kts 25°
2026-04-21 20:40 56.20428 15.62675 36312 ft 411 kts 25°
2026-04-21 20:41 56.25624 15.66826 36303 ft 411 kts 25°
2026-04-21 20:41 56.30848 15.71015 36305 ft 411 kts 25°
2026-04-21 20:42 56.36078 15.75229 36305 ft 411 kts 25°
2026-04-21 20:42 56.41296 15.79442 36299 ft 411 kts 25°
2026-04-21 20:43 56.46495 15.83647 36299 ft 412 kts 25°
2026-04-21 20:43 56.51719 15.87889 36300 ft 412 kts 25°
2026-04-21 20:44 56.56941 15.92153 36297 ft 411 kts 25°
2026-04-21 20:44 56.62156 15.96429 36295 ft 411 kts 25°
2026-04-21 20:45 56.67376 16.00701 36289 ft 412 kts 25°
2026-04-21 20:45 56.72562 16.04952 36287 ft 412 kts 25°
2026-04-21 20:46 56.77784 16.09255 36285 ft 412 kts 25°
2026-04-21 20:46 56.82996 16.13571 36286 ft 412 kts 25°
2026-04-21 20:47 56.88213 16.17905 36278 ft 412 kts 25°
2026-04-21 20:47 56.93398 16.22214 36280 ft 412 kts 25°
2026-04-21 20:48 56.98615 16.26567 36275 ft 412 kts 25°
2026-04-21 20:48 57.03834 16.30951 36274 ft 412 kts 25°
2026-04-21 20:49 57.09048 16.35338 36276 ft 412 kts 25°
2026-04-21 20:49 57.14232 16.39708 36270 ft 413 kts 25°
2026-04-21 20:50 57.19454 16.44123 36270 ft 413 kts 25°
2026-04-21 20:50 57.24672 16.48544 36269 ft 413 kts 25°
2026-04-21 20:51 57.29897 16.52965 36271 ft 413 kts 25°
2026-04-21 20:51 57.35091 16.57385 36274 ft 413 kts 25°
2026-04-21 20:52 57.40308 16.61861 36263 ft 414 kts 25°
2026-04-21 20:52 57.45528 16.66350 36261 ft 414 kts 25°
2026-04-21 20:53 57.50760 16.70867 36268 ft 414 kts 25°
2026-04-21 20:53 57.55984 16.75390 36269 ft 414 kts 25°
2026-04-21 20:54 57.61178 16.79901 36268 ft 414 kts 25°
2026-04-21 20:54 57.66395 16.84439 36268 ft 414 kts 25°
2026-04-21 20:55 57.71617 16.88994 36265 ft 414 kts 25°
2026-04-21 20:55 57.76838 16.93569 36265 ft 414 kts 25°
2026-04-21 20:56 57.82018 16.98121 36268 ft 414 kts 25°
2026-04-21 20:56 57.87238 17.02721 36269 ft 414 kts 25°
2026-04-21 20:57 57.92460 17.07331 36256 ft 415 kts 25°
2026-04-21 20:57 57.95079 17.09650 36012 ft 416 kts 25°
2026-04-21 20:57 57.97694 17.11969 35787 ft 415 kts 25°
2026-04-21 20:58 58.00304 17.14286 35534 ft 414 kts 25°
2026-04-21 20:58 58.02916 17.16605 34986 ft 416 kts 25°
2026-04-21 20:58 58.05503 17.18905 34201 ft 418 kts 25°
2026-04-21 20:58 58.08139 17.21258 33211 ft 421 kts 25°
2026-04-21 20:59 58.10788 17.23632 32291 ft 422 kts 24°
2026-04-21 20:59 58.13441 17.26015 31377 ft 423 kts 24°
2026-04-21 20:59 58.16102 17.28408 30386 ft 425 kts 24°
2026-04-21 20:59 58.18784 17.30821 29249 ft 427 kts 24°
2026-04-21 21:00 58.21456 17.33229 28551 ft 421 kts 24°
2026-04-21 21:00 58.24069 17.35592 27954 ft 412 kts 24°
2026-04-21 21:00 58.26599 17.37882 27335 ft 405 kts 24°
2026-04-21 21:00 58.29117 17.40160 26728 ft 398 kts 24°
2026-04-21 21:01 58.31602 17.42412 26124 ft 393 kts 24°
2026-04-21 21:01 58.34053 17.44635 25534 ft 387 kts 24°
2026-04-21 21:01 58.36469 17.46833 24946 ft 382 kts 24°
2026-04-21 21:01 58.38850 17.49006 24399 ft 378 kts 24°
2026-04-21 21:02 58.41206 17.51156 23832 ft 373 kts 24°
2026-04-21 21:02 58.43507 17.53256 23213 ft 369 kts 24°
2026-04-21 21:02 58.45805 17.55358 22700 ft 363 kts 24°
2026-04-21 21:02 58.48063 17.57424 22209 ft 357 kts 24°
2026-04-21 21:03 58.50284 17.59461 21736 ft 352 kts 24°
2026-04-21 21:03 58.52478 17.61472 21271 ft 347 kts 24°
2026-04-21 21:03 58.54637 17.63454 20835 ft 342 kts 24°
2026-04-21 21:03 58.56762 17.65410 20426 ft 337 kts 24°
2026-04-21 21:04 58.58864 17.67350 20018 ft 334 kts 24°
2026-04-21 21:04 58.60953 17.69283 19610 ft 332 kts 24°
2026-04-21 21:04 58.63001 17.71178 19214 ft 330 kts 24°
2026-04-21 21:04 58.65064 17.73088 18800 ft 329 kts 24°
2026-04-21 21:05 58.67123 17.74996 18368 ft 327 kts 24°
2026-04-21 21:05 58.69165 17.76891 17924 ft 326 kts 24°
2026-04-21 21:05 58.71203 17.78782 17499 ft 324 kts 24°
2026-04-21 21:05 58.73234 17.80668 17071 ft 323 kts 24°
2026-04-21 21:06 58.75254 17.82547 16633 ft 322 kts 24°
2026-04-21 21:06 58.77259 17.84422 16200 ft 320 kts 24°
2026-04-21 21:06 58.79255 17.86291 15743 ft 319 kts 24°
2026-04-21 21:06 58.81223 17.88133 15311 ft 317 kts 24°
2026-04-21 21:07 58.83238 17.90018 14916 ft 331 kts 24°
2026-04-21 21:07 58.85333 17.91979 14516 ft 337 kts 24°
2026-04-21 21:07 58.87437 17.93957 14115 ft 337 kts 24°
2026-04-21 21:07 58.89538 17.95940 13683 ft 336 kts 24°
2026-04-21 21:08 58.91635 17.97927 13284 ft 334 kts 24°
2026-04-21 21:08 58.93719 17.99906 12879 ft 333 kts 24°
2026-04-21 21:08 58.95785 18.01872 12486 ft 331 kts 24°
2026-04-21 21:08 58.97824 18.03815 12091 ft 329 kts 24°
2026-04-21 21:09 58.99872 18.05765 11703 ft 327 kts 24°
2026-04-21 21:09 59.01913 18.07710 11318 ft 326 kts 24°
2026-04-21 21:09 59.03935 18.09640 10930 ft 322 kts 24°
2026-04-21 21:09 59.05899 18.11518 10803 ft 307 kts 24°
2026-04-21 21:10 59.07775 18.13313 10676 ft 294 kts 23°
2026-04-21 21:10 59.09624 18.14761 10556 ft 280 kts 13°
2026-04-21 21:10 59.11490 18.15418 10414 ft 267 kts
2026-04-21 21:10 59.13327 18.15620 10164 ft 262 kts
2026-04-21 21:11 59.15111 18.15823 10046 ft 260 kts
2026-04-21 21:11 59.16917 18.16035 9911 ft 260 kts
2026-04-21 21:11 59.18718 18.16250 9761 ft 259 kts
2026-04-21 21:11 59.20512 18.16464 9523 ft 258 kts
2026-04-21 21:12 59.22291 18.16677 9266 ft 256 kts
2026-04-21 21:12 59.24071 18.16890 8984 ft 255 kts
2026-04-21 21:12 59.25844 18.17101 8715 ft 254 kts
2026-04-21 21:12 59.27605 18.17308 8446 ft 253 kts
2026-04-21 21:13 59.29341 18.17512 8180 ft 252 kts
2026-04-21 21:13 59.31090 18.17718 7915 ft 252 kts
2026-04-21 21:13 59.32838 18.17924 7649 ft 251 kts
2026-04-21 21:13 59.34577 18.18129 7385 ft 250 kts
2026-04-21 21:14 59.36311 18.18333 7121 ft 250 kts
2026-04-21 21:14 59.38045 18.18539 6860 ft 249 kts
2026-04-21 21:14 59.39769 18.18742 6589 ft 248 kts
2026-04-21 21:14 59.41486 18.18947 6274 ft 248 kts
2026-04-21 21:15 59.43201 18.19121 5885 ft 246 kts 358°
2026-04-21 21:15 59.44809 18.18290 5502 ft 245 kts 330°
2026-04-21 21:15 59.45994 18.15906 5116 ft 250 kts 302°
2026-04-21 21:15 59.46572 18.12654 4722 ft 255 kts 289°
2026-04-21 21:16 59.46867 18.09203 4335 ft 257 kts 279°
2026-04-21 21:16 59.46986 18.05729 4078 ft 250 kts 278°
2026-04-21 21:16 59.47078 18.02368 3826 ft 243 kts 278°
2026-04-21 21:16 59.47159 17.99103 3566 ft 236 kts 278°
2026-04-21 21:17 59.47237 17.95907 3308 ft 231 kts 278°
2026-04-21 21:17 59.47315 17.92791 3042 ft 226 kts 277°
2026-04-21 21:17 59.47404 17.89781 2803 ft 221 kts 281°
2026-04-21 21:17 59.47941 17.87125 2570 ft 204 kts 318°
2026-04-21 21:18 59.49164 17.86102 2492 ft 192 kts
2026-04-21 21:18 59.50476 17.86583 2517 ft 192 kts
2026-04-21 21:18 59.51770 17.87037 2462 ft 186 kts
2026-04-21 21:18 59.53031 17.87479 2279 ft 183 kts
2026-04-21 21:19 59.54281 17.87924 2061 ft 186 kts
2026-04-21 21:19 59.55623 17.88403 1785 ft 191 kts
2026-04-21 21:19 59.56896 17.88863 1538 ft 183 kts
2026-04-21 21:19 59.58127 17.89306 1317 ft 174 kts
2026-04-21 21:20 59.59255 17.89713 1090 ft 158 kts
2026-04-21 21:20 59.60276 17.90081 845 ft 142 kts
2026-04-21 21:20 59.61224 17.90422 653 ft 136 kts
2026-04-21 21:20 59.62149 17.90755 472 ft 135 kts
2026-04-21 21:21 59.63072 17.91087 292 ft 135 kts 10°
2026-04-21 21:21 59.63990 17.91418 121 ft 133 kts 10°
2026-04-21 21:21 59.64781 17.91702 108 ft 92 kts 11°
2026-04-21 21:21 59.65240 17.91867 106 ft 42 kts 10°
2026-04-21 21:22 59.65509 17.91974 107 ft 39 kts 15°
2026-04-21 21:22 59.65700 17.92097 106 ft 24 kts 29°
2026-04-21 21:22 59.65777 17.92238 107 ft 12 kts 50°
2026-04-21 21:22 59.65798 17.92305 105 ft 5 kts 77°
2026-04-21 21:23 59.65794 17.92382 105 ft 5 kts 111°
2026-04-21 21:23 59.65772 17.92417 105 ft 3 kts 158°
2026-04-21 21:23 59.65762 17.92420 105 ft 0 kts 171°
2026-04-21 21:24 59.65762 17.92421 105 ft 0 kts 171°
2026-04-21 21:24 59.65761 17.92421 105 ft 0 kts 171°
2026-04-21 21:24 59.65740 17.92425 104 ft 6 kts 173°
2026-04-21 21:25 59.65682 17.92446 104 ft 9 kts 165°
2026-04-21 21:25 59.65635 17.92474 103 ft 0 kts 163°
2026-04-21 21:26 59.65633 17.92475 103 ft 2 kts 163°
2026-04-21 21:26 59.65594 17.92498 104 ft 9 kts 163°
2026-04-21 21:26 59.65545 17.92527 105 ft 6 kts 160°
2026-04-21 21:27 59.65526 17.92572 105 ft 3 kts 108°
2026-04-21 21:27 59.65526 17.92594 106 ft 0 kts 82°
2026-04-21 21:27 59.65530 17.92620 106 ft 5 kts 75°
2026-04-21 21:27 59.65544 17.92706 107 ft 9 kts 74°
2026-04-21 21:28 59.65563 17.92875 109 ft 14 kts 78°
2026-04-21 21:28 59.65586 17.93058 109 ft 8 kts 75°
2026-04-21 21:28 59.65593 17.93292 108 ft 11 kts 136°
2026-04-21 21:29 59.65526 17.93336 112 ft 10 kts 165°
2026-04-21 21:29 59.65454 17.93343 110 ft 12 kts 173°
2026-04-21 21:29 59.65419 17.93382 112 ft 0 kts 69°
2026-04-21 21:29 59.65420 17.93400 112 ft 4 kts 77°
2026-04-21 21:30 59.65430 17.93473 112 ft 4 kts 75°
2026-04-21 21:30 59.65434 17.93502 110 ft 1 kts 75°
2026-04-21 21:30 59.65434 17.93504 110 ft 0 kts 75°